When you browse on this site, cookies collect data to enhance your experience and personalize the content and advertising you see.
Visit our Privacy Policy to learn more. By continuing to use the site, you agree to this use of cookies and data.
  • In Austria
  • List of Countries
  • For 7 days
  • Water Temperature
  • Weather Map
  • News
  • Weather Widgets
  • user-avatar
    Login

    Hourly Weather Vijayawada

    Today, 27 May, Wednesday

    Time Temperature Precipitation Wind Pressure Humidity
    00:00 +32°C° 0 mm 4 mps 752 mmHg 78%
    01:00 +31°C° 0 mm 3 mps 752 mmHg 79%
    02:00 +31°C° 0 mm 3 mps 752 mmHg 81%
    03:00 +31°C° 0 mm 3 mps 752 mmHg 82%
    04:00 +30°C° 0 mm 2 mps 752 mmHg 83%
    05:00 +30°C° 0 mm 1 mps 752 mmHg 85%
    06:00 +32°C° 0 mm 2 mps 753 mmHg 76%
    07:00 +34°C° 0 mm 3 mps 753 mmHg 68%
    08:00 +36°C° 0 mm 4 mps 753 mmHg 59%
    09:00 +38°C° 0 mm 3 mps 753 mmHg 49%
    10:00 +42°C° 0 mm 3 mps 753 mmHg 39%
    11:00 +44°C° 0 mm 3 mps 752 mmHg 29%
    12:00 +45°C° 0 mm 3 mps 751 mmHg 26%
    13:00 +46°C° 0 mm 3 mps 750 mmHg 23%
    14:00 +47°C° 0 mm 3 mps 749 mmHg 20%
    15:00 +47°C° 0 mm 4 mps 749 mmHg 25%
    16:00 +45°C° 0 mm 6 mps 749 mmHg 30%
    17:00 +43°C° 0 mm 7 mps 749 mmHg 36%
    18:00 +40°C° 0 mm 6 mps 749 mmHg 47%
    19:00 +36°C° 0 mm 5 mps 750 mmHg 58%
    20:00 +34°C° 0 mm 5 mps 751 mmHg 70%
    21:00 +33°C° 0 mm 4 mps 751 mmHg 72%
    22:00 +33°C° 0 mm 4 mps 751 mmHg 74%
    23:00 +33°C° 0 mm 3 mps 751 mmHg 77%

    Tomorrow, 28 May, Thursday

    Time Temperature Precipitation Wind Pressure Humidity
    00:00 +31°C° 0 mm 3 mps 751 mmHg 79%
    01:00 +32°C° 0 mm 4 mps 751 mmHg 81%
    02:00 +32°C° 0 mm 4 mps 750 mmHg 83%
    03:00 +31°C° 0 mm 3 mps 750 mmHg 84%
    04:00 +30°C° 0 mm 3 mps 750 mmHg 85%
    05:00 +30°C° 0 mm 2 mps 751 mmHg 86%
    06:00 +32°C° 0 mm 2 mps 751 mmHg 75%
    07:00 +36°C° 0 mm 2 mps 752 mmHg 64%
    08:00 +38°C° 0 mm 2 mps 752 mmHg 53%
    09:00 +42°C° 0 mm 3 mps 752 mmHg 42%
    10:00 +44°C° 0 mm 3 mps 751 mmHg 32%
    11:00 +47°C° 0 mm 3 mps 751 mmHg 21%
    12:00 +48°C° 0 mm 3 mps 750 mmHg 21%
    13:00 +48°C° 0 mm 3 mps 749 mmHg 20%
    14:00 +50°C° 0 mm 3 mps 748 mmHg 19%
    15:00 +48°C° 0 mm 4 mps 748 mmHg 27%
    16:00 +45°C° 0 mm 6 mps 748 mmHg 34%
    17:00 +43°C° 0 mm 7 mps 747 mmHg 42%
    18:00 +40°C° 0 mm 6 mps 748 mmHg 51%
    19:00 +38°C° 0 mm 6 mps 749 mmHg 60%
    20:00 +34°C° 0 mm 5 mps 750 mmHg 69%
    21:00 +34°C° 0 mm 5 mps 750 mmHg 71%
    22:00 +34°C° 0 mm 5 mps 750 mmHg 72%
    23:00 +34°C° 0 mm 5 mps 750 mmHg 73%

    Day after tomorrow, 29 May, Friday

    Time Temperature Precipitation Wind Pressure Humidity
    00:00 +34°C° 0 mm 5 mps 750 mmHg 72%
    01:00 +34°C° 0 mm 4 mps 750 mmHg 72%
    02:00 +33°C° 0 mm 4 mps 749 mmHg 71%
    03:00 +33°C° 0 mm 4 mps 750 mmHg 72%
    04:00 +33°C° 0 mm 4 mps 750 mmHg 73%
    05:00 +33°C° 0 mm 4 mps 750 mmHg 73%
    06:00 +35°C° 0 mm 4 mps 750 mmHg 64%
    07:00 +37°C° 0 mm 3 mps 751 mmHg 54%
    08:00 +39°C° 0 mm 3 mps 751 mmHg 45%
    09:00 +42°C° 0 mm 2 mps 751 mmHg 37%
    10:00 +45°C° 0 mm 2 mps 750 mmHg 30%
    11:00 +47°C° 0 mm 1 mps 750 mmHg 23%
    12:00 +48°C° 0 mm 1 mps 749 mmHg 21%
    13:00 +48°C° 0 mm 1 mps 748 mmHg 18%
    14:00 +49°C° 0 mm 1 mps 748 mmHg 16%
    15:00 +48°C° 0 mm 3 mps 747 mmHg 21%
    16:00 +47°C° 0 mm 4 mps 747 mmHg 25%
    17:00 +45°C° 0 mm 5 mps 747 mmHg 30%
    18:00 +41°C° 0 mm 5 mps 748 mmHg 42%
    19:00 +39°C° 0 mm 6 mps 749 mmHg 54%
    20:00 +35°C° 0 mm 6 mps 750 mmHg 66%
    21:00 +35°C° 0 mm 5 mps 750 mmHg 69%
    22:00 +34°C° 0 mm 5 mps 751 mmHg 72%
    23:00 +34°C° 0 mm 4 mps 751 mmHg 76%

    30 May, Saturday

    Time Temperature Precipitation Wind Pressure Humidity
    00:00 +34°C° 0 mm 4 mps 751 mmHg 76%
    01:00 +33°C° 0 mm 4 mps 751 mmHg 76%
    02:00 +33°C° 0 mm 4 mps 751 mmHg 76%
    03:00 +33°C° 0 mm 5 mps 751 mmHg 77%
    04:00 +33°C° 0 mm 5 mps 751 mmHg 77%
    05:00 +33°C° 0 mm 5 mps 751 mmHg 78%
    06:00 +34°C° 0 mm 5 mps 751 mmHg 71%
    07:00 +36°C° 0 mm 5 mps 752 mmHg 65%
    08:00 +37°C° 0 mm 4 mps 753 mmHg 58%
    09:00 +40°C° 0 mm 4 mps 752 mmHg 50%
    10:00 +42°C° 0 mm 3 mps 752 mmHg 42%
    11:00 +45°C° 0 mm 3 mps 752 mmHg 33%
    12:00 +46°C° 0 mm 3 mps 751 mmHg 30%
    13:00 +47°C° 0 mm 3 mps 750 mmHg 26%
    14:00 +48°C° 0 mm 3 mps 750 mmHg 22%
    15:00 +44°C° 0.9 mm 4 mps 750 mmHg 35%
    16:00 +40°C° 0.9 mm 5 mps 749 mmHg 48%
    17:00 +35°C° 0.9 mm 6 mps 749 mmHg 60%
    18:00 +35°C° 0.8 mm 5 mps 750 mmHg 61%
    19:00 +34°C° 0.8 mm 4 mps 751 mmHg 61%
    20:00 +34°C° 0.8 mm 3 mps 752 mmHg 61%
    21:00 +34°C° 0 mm 3 mps 753 mmHg 65%
    22:00 +34°C° 0 mm 4 mps 753 mmHg 70%
    23:00 +33°C° 0 mm 4 mps 753 mmHg 74%

    31 May, Sunday

    Time Temperature Precipitation Wind Pressure Humidity
    00:00 +33°C° 0 mm 3 mps 753 mmHg 75%
    01:00 +33°C° 0 mm 3 mps 753 mmHg 77%
    02:00 +32°C° 0 mm 2 mps 752 mmHg 78%
    03:00 +31°C° 0 mm 2 mps 753 mmHg 80%
    04:00 +31°C° 0 mm 2 mps 753 mmHg 82%
    05:00 +31°C° 0 mm 3 mps 753 mmHg 84%
    06:00 +33°C° 0 mm 3 mps 754 mmHg 79%
    07:00 +34°C° 0 mm 3 mps 754 mmHg 74%
    08:00 +35°C° 0 mm 4 mps 755 mmHg 68%
    09:00 +37°C° 0 mm 3 mps 754 mmHg 58%
    10:00 +40°C° 0 mm 3 mps 754 mmHg 48%
    11:00 +42°C° 0 mm 2 mps 754 mmHg 38%
    12:00 +42°C° 0 mm 2 mps 753 mmHg 36%
    13:00 +44°C° 0 mm 3 mps 752 mmHg 34%
    14:00 +45°C° 0 mm 3 mps 751 mmHg 31%
    15:00 +43°C° 0 mm 4 mps 751 mmHg 37%
    16:00 +42°C° 0 mm 5 mps 751 mmHg 42%
    17:00 +40°C° 0 mm 6 mps 751 mmHg 48%
    18:00 +38°C° 0 mm 6 mps 752 mmHg 57%
    19:00 +35°C° 0 mm 6 mps 752 mmHg 67%
    20:00 +33°C° 0 mm 5 mps 753 mmHg 76%
    21:00 +33°C° 0.1 mm 4 mps 754 mmHg 77%
    22:00 +33°C° 0.1 mm 3 mps 754 mmHg 77%
    23:00 +32°C° 0.1 mm 2 mps 754 mmHg 78%

    1 June, Monday

    Time Temperature Precipitation Wind Pressure Humidity
    00:00 +32°C° 0 mm 2 mps 754 mmHg 79%
    01:00 +31°C° 0 mm 2 mps 753 mmHg 80%
    02:00 +31°C° 0 mm 2 mps 752 mmHg 81%
    03:00 +31°C° 0 mm 2 mps 753 mmHg 83%
    04:00 +31°C° 0 mm 2 mps 753 mmHg 84%
    05:00 +31°C° 0 mm 2 mps 753 mmHg 85%
    06:00 +32°C° 0 mm 2 mps 754 mmHg 77%
    07:00 +34°C° 0 mm 2 mps 754 mmHg 69%
    08:00 +36°C° 0 mm 3 mps 755 mmHg 62%
    09:00 +38°C° 0 mm 2 mps 755 mmHg 54%
    10:00 +40°C° 0 mm 1 mps 754 mmHg 46%
    11:00 +41°C° 0 mm 1 mps 754 mmHg 39%
    12:00 +42°C° 0 mm 2 mps 753 mmHg 36%
    13:00 +43°C° 0 mm 2 mps 753 mmHg 33%
    14:00 +45°C° 0 mm 3 mps 752 mmHg 30%
    15:00 +44°C° 0 mm 4 mps 751 mmHg 33%
    16:00 +43°C° 0 mm 5 mps 751 mmHg 37%
    17:00 +41°C° 0 mm 6 mps 751 mmHg 41%
    18:00 +39°C° 0.3 mm 5 mps 751 mmHg 48%
    19:00 +36°C° 0.3 mm 4 mps 752 mmHg 55%
    20:00 +34°C° 0.3 mm 3 mps 752 mmHg 62%
    21:00 +34°C° 0.1 mm 3 mps 753 mmHg 65%
    22:00 +33°C° 0.1 mm 4 mps 753 mmHg 69%
    23:00 +33°C° 0.1 mm 4 mps 753 mmHg 72%
    Show more